{"data":{"norad_id":64603,"epoch":"2026-09-20T22:44:54.824064Z","epoch_age_seconds":92968,"freshness":"FRESH","line1":"1 64603U 25137K   26263.94785676  .00021693  00000+0  66859-3 0  9995","line2":"2 64603  53.1572 145.8828 0001265  81.5172 278.5974 15.33568607 70663","mean_motion":15.33568607,"eccentricity":0.0001265,"inclination_deg":53.1572,"raan_deg":145.8828,"arg_perigee_deg":81.5172,"mean_anomaly_deg":278.5974,"bstar":0.00066859,"rev_number":7066,"period_min":93.898635732832,"perigee_km":464.30975269065,"apogee_km":466.04111073588,"semimajor_km":6843.3124317133,"source":"CELESTRAK","updated_at":"2026-09-21T09:00:35.365688Z"}}